Time,TemperatureF,DewpointF,PressureIn,WindDirection,WindDirectionDegrees,WindSpeedMPH,WindSpeedGustMPH,Humidity,HourlyPrecipIn,Conditions,Clouds,dailyrainin,SolarRadiationWatts/m^2,SoftwareType,DateUTC
2013-05-11 00:00:00,48.0,44.0,-100.00,WSW,247,1.0,-999.0,86,-99.99,,,-99.99,1.160000,,2013-05-11 04:00:00,
2013-05-11 00:43:00,48.0,44.0,-100.00,WSW,247,1.0,-999.0,86,-99.99,,,-99.99,1.160000,,2013-05-11 04:43:00,
2013-05-11 00:52:00,48.0,44.0,-100.00,WSW,247,1.0,-999.0,86,-99.99,,,-99.99,1.160000,,2013-05-11 04:52:00,
2013-05-11 01:00:00,48.0,45.0,-100.00,WSW,247,2.0,-999.0,91,-99.99,,,-99.99,1.160000,,2013-05-11 05:00:00,
2013-05-11 01:42:00,48.0,45.0,-100.00,WSW,247,2.0,-999.0,91,-99.99,,,-99.99,1.160000,,2013-05-11 05:42:00,
2013-05-11 01:52:00,48.0,45.0,-100.00,WSW,247,2.0,-999.0,91,-99.99,,,-99.99,1.160000,,2013-05-11 05:52:00,
2013-05-11 02:00:00,47.0,45.0,-100.00,WSW,247,3.0,-999.0,92,-99.99,,,-99.99,1.160000,,2013-05-11 06:00:00,
2013-05-11 02:42:00,47.0,45.0,-100.00,WSW,247,3.0,-999.0,92,-99.99,,,-99.99,1.160000,,2013-05-11 06:42:00,
2013-05-11 02:52:00,47.0,45.0,-100.00,WSW,247,3.0,-999.0,92,-99.99,,,-99.99,1.160000,,2013-05-11 06:52:00,
2013-05-11 03:00:00,47.0,45.0,-100.00,WSW,247,1.0,-999.0,91,-99.99,,,-99.99,1.160000,,2013-05-11 07:00:00,
2013-05-11 03:42:00,47.0,45.0,-100.00,WSW,247,1.0,-999.0,91,-99.99,,,-99.99,1.160000,,2013-05-11 07:42:00,
2013-05-11 03:52:00,47.0,45.0,-100.00,WSW,247,1.0,-999.0,91,-99.99,,,-99.99,1.160000,,2013-05-11 07:52:00,
2013-05-11 04:00:00,47.0,44.0,-100.00,WSW,247,1.0,-999.0,89,-99.99,,,-99.99,1.160000,,2013-05-11 08:00:00,
2013-05-11 04:43:00,47.0,44.0,-100.00,WSW,247,1.0,-999.0,89,-99.99,,,-99.99,1.160000,,2013-05-11 08:43:00,
2013-05-11 04:52:00,47.0,44.0,-100.00,WSW,247,1.0,-999.0,89,-99.99,,,-99.99,1.160000,,2013-05-11 08:52:00,
2013-05-11 05:00:00,46.0,43.0,-100.00,WSW,247,4.0,-999.0,89,-99.99,,,-99.99,1.160000,,2013-05-11 09:00:00,
2013-05-11 05:42:00,46.0,43.0,-100.00,WSW,247,4.0,-999.0,89,-99.99,,,-99.99,1.160000,,2013-05-11 09:42:00,
2013-05-11 05:52:00,46.0,43.0,-100.00,WSW,247,4.0,-999.0,89,-99.99,,,-99.99,1.160000,,2013-05-11 09:52:00,
2013-05-11 06:00:00,45.0,43.0,-100.00,WSW,247,4.0,-999.0,91,-99.99,,,-99.99,1.160000,,2013-05-11 10:00:00,
2013-05-11 06:42:00,45.0,43.0,-100.00,WSW,247,4.0,-999.0,91,-99.99,,,-99.99,1.160000,,2013-05-11 10:42:00,
2013-05-11 06:53:00,45.0,43.0,-100.00,WSW,247,4.0,-999.0,91,-99.99,,,-99.99,1.160000,,2013-05-11 10:53:00,
2013-05-11 07:00:00,43.0,42.0,-100.00,WSW,247,4.0,-999.0,93,-99.99,,,-99.99,3.480000,,2013-05-11 11:00:00,
2013-05-11 07:42:00,43.0,42.0,-100.00,WSW,247,4.0,-999.0,93,-99.99,,,-99.99,3.480000,,2013-05-11 11:42:00,
2013-05-11 07:52:00,43.0,42.0,-100.00,WSW,247,4.0,-999.0,93,-99.99,,,-99.99,3.480000,,2013-05-11 11:52:00,
2013-05-11 08:00:00,43.0,41.0,-100.00,SW,225,5.0,-999.0,94,-99.99,,,-99.99,25.520000,,2013-05-11 12:00:00,
2013-05-11 08:42:00,43.0,41.0,-100.00,SW,225,5.0,-999.0,94,-99.99,,,-99.99,25.520000,,2013-05-11 12:42:00,
2013-05-11 08:52:00,43.0,41.0,-100.00,SW,225,5.0,-999.0,94,-99.99,,,-99.99,25.520000,,2013-05-11 12:52:00,
2013-05-11 09:00:00,43.0,41.0,-100.00,SW,225,5.0,-999.0,94,-99.99,,,-99.99,63.799999,,2013-05-11 13:00:00,
2013-05-11 09:42:00,43.0,41.0,-100.00,SW,225,5.0,-999.0,94,-99.99,,,-99.99,63.799999,,2013-05-11 13:42:00,
2013-05-11 09:52:00,43.0,41.0,-100.00,SW,225,5.0,-999.0,94,-99.99,,,-99.99,63.799999,,2013-05-11 13:52:00,
2013-05-11 10:00:00,42.0,41.0,-100.00,SW,225,7.0,-999.0,93,-99.99,,,-99.99,126.440002,,2013-05-11 14:00:00,
2013-05-11 10:42:00,42.0,41.0,-100.00,SW,225,7.0,-999.0,93,-99.99,,,-99.99,126.440002,,2013-05-11 14:42:00,
2013-05-11 10:52:00,42.0,41.0,-100.00,SW,225,7.0,-999.0,93,-99.99,,,-99.99,126.440002,,2013-05-11 14:52:00,
2013-05-11 12:00:00,47.0,43.0,-100.00,South,180,9.0,-999.0,89,-99.99,,,-99.99,229.679993,,2013-05-11 16:00:00,
2013-05-11 12:42:00,47.0,43.0,-100.00,South,180,9.0,-999.0,89,-99.99,,,-99.99,229.679993,,2013-05-11 16:42:00,
2013-05-11 12:53:00,47.0,43.0,-100.00,South,180,9.0,-999.0,89,-99.99,,,-99.99,229.679993,,2013-05-11 16:53:00,
2013-05-11 13:00:00,50.0,46.0,-100.00,SE,135,11.0,-999.0,85,-99.99,,,-99.99,236.639999,,2013-05-11 17:00:00,
2013-05-11 13:42:00,50.0,46.0,-100.00,SE,135,11.0,-999.0,85,-99.99,,,-99.99,236.639999,,2013-05-11 17:42:00,
2013-05-11 13:52:00,50.0,46.0,-100.00,SE,135,11.0,-999.0,85,-99.99,,,-99.99,236.639999,,2013-05-11 17:52:00,
2013-05-11 14:00:00,49.0,46.0,-100.00,North,0,13.0,-999.0,87,0.01,,,-99.99,54.520000,,2013-05-11 18:00:00,
2013-05-11 14:42:00,49.0,46.0,-100.00,North,0,13.0,-999.0,87,0.01,,,-99.99,54.520000,,2013-05-11 18:42:00,
2013-05-11 14:52:00,49.0,46.0,-100.00,North,0,13.0,-999.0,87,0.01,,,-99.99,54.520000,,2013-05-11 18:52:00,
2013-05-11 15:00:00,45.0,42.0,-100.00,WNW,292,15.0,-999.0,88,0.02,,,-99.99,183.279999,,2013-05-11 19:00:00,
2013-05-11 15:42:00,45.0,42.0,-100.00,WNW,292,15.0,-999.0,88,0.02,,,-99.99,183.279999,,2013-05-11 19:42:00,
2013-05-11 15:53:00,45.0,42.0,-100.00,WNW,292,15.0,-999.0,88,0.02,,,-99.99,183.279999,,2013-05-11 19:53:00,
2013-05-11 16:00:00,43.0,38.0,-100.00,NNE,22,14.0,-999.0,83,-99.99,,,-99.99,267.959991,,2013-05-11 20:00:00,
2013-05-11 16:42:00,43.0,38.0,-100.00,NNE,22,14.0,-999.0,83,-99.99,,,-99.99,267.959991,,2013-05-11 20:42:00,
2013-05-11 16:52:00,43.0,38.0,-100.00,NNE,22,14.0,-999.0,83,-99.99,,,-99.99,267.959991,,2013-05-11 20:52:00,
2013-05-11 17:00:00,45.0,37.0,-100.00,North,0,16.0,-999.0,72,-99.99,,,-99.99,496.480011,,2013-05-11 21:00:00,
2013-05-11 17:43:00,45.0,37.0,-100.00,North,0,16.0,-999.0,72,-99.99,,,-99.99,496.480011,,2013-05-11 21:43:00,
2013-05-11 17:53:00,45.0,37.0,-100.00,North,0,16.0,-999.0,72,-99.99,,,-99.99,496.480011,,2013-05-11 21:53:00,
2013-05-11 18:00:00,47.0,35.0,-100.00,WSW,247,13.0,-999.0,63,-99.99,,,-99.99,382.799988,,2013-05-11 22:00:00,
2013-05-11 18:43:00,47.0,35.0,-100.00,WSW,247,13.0,-999.0,63,-99.99,,,-99.99,382.799988,,2013-05-11 22:43:00,
2013-05-11 18:52:00,47.0,35.0,-100.00,WSW,247,13.0,-999.0,63,-99.99,,,-99.99,382.799988,,2013-05-11 22:52:00,
2013-05-11 19:00:00,48.0,35.0,-100.00,ESE,112,9.0,-999.0,60,-99.99,,,-99.99,199.520004,,2013-05-11 23:00:00,
2013-05-11 19:42:00,48.0,35.0,-100.00,ESE,112,9.0,-999.0,60,-99.99,,,-99.99,199.520004,,2013-05-11 23:42:00,
2013-05-11 19:52:00,48.0,35.0,-100.00,ESE,112,9.0,-999.0,60,-99.99,,,-99.99,199.520004,,2013-05-11 23:52:00,
2013-05-11 21:00:00,42.0,35.0,-100.00,WNW,292,8.0,-999.0,77,-99.99,,,-99.99,42.919998,,2013-05-12 01:00:00,
2013-05-11 21:42:00,42.0,35.0,-100.00,WNW,292,8.0,-999.0,77,-99.99,,,-99.99,42.919998,,2013-05-12 01:42:00,
2013-05-11 21:52:00,42.0,35.0,-100.00,WNW,292,8.0,-999.0,77,-99.99,,,-99.99,42.919998,,2013-05-12 01:52:00,
2013-05-11 22:00:00,40.0,36.0,-100.00,WSW,247,4.0,-999.0,85,-99.99,,,-99.99,1.160000,,2013-05-12 02:00:00,
2013-05-11 22:42:00,40.0,36.0,-100.00,WSW,247,4.0,-999.0,85,-99.99,,,-99.99,1.160000,,2013-05-12 02:42:00,
2013-05-11 22:52:00,40.0,36.0,-100.00,WSW,247,4.0,-999.0,85,-99.99,,,-99.99,1.160000,,2013-05-12 02:52:00,
2013-05-11 23:00:00,-999.0,-99.9,-100.00,WSW,247,2.0,-999.0,89,-99.99,,,-99.99,1.160000,,2013-05-12 03:00:00,
2013-05-11 23:43:00,38.0,36.0,-100.00,WSW,247,2.0,-999.0,89,-99.99,,,-99.99,1.160000,,2013-05-12 03:43:00,
2013-05-11 23:53:00,38.0,36.0,-100.00,WSW,247,2.0,-999.0,89,-99.99,,,-99.99,1.160000,,2013-05-12 03:53:00,